This is the latest recevied weather packets stored in our database for station/object W3TMB. If no packets are shown the sender has not sent any weather packets the latest 10 day(s).
| Time | Temp. | Humidity | Pressure | Rain* | Wind** | Luminosity | Snow |
|---|---|---|---|---|---|---|---|
| 1777828165 | 13.89° C | 39% | 1010.9 hPa | 0 mm | - | 267 W/m² | - |
| 1777827861 | 14.44° C | 37% | 1010.8 hPa | 0 mm | - | 284 W/m² | - |
| 1777827558 | 13.89° C | 41% | 1010.9 hPa | 0 mm | - | 793 W/m² | - |
| 1777827256 | 13.89° C | 39% | 1011.2 hPa | 0 mm | - | 566 W/m² | - |
| 1777826951 | 13.33° C | 41% | 1011.4 hPa | 0 mm | - | 783 W/m² | - |
| 1777826649 | 12.78° C | 43% | 1011 hPa | 0 mm | - | 785 W/m² | - |
| 1777826345 | 12.22° C | 45% | 1011.6 hPa | 0 mm | - | 795 W/m² | - |
| 1777826043 | 13.33° C | 40% | 1011.5 hPa | 0 mm | - | 846 W/m² | - |
| 1777825739 | 13.33° C | 42% | 1011.6 hPa | 0 mm | - | 858 W/m² | - |
| 1777825438 | 12.78° C | 44% | 1011.6 hPa | 0 mm | - | 821 W/m² | - |
| 1777825134 | 12.22° C | 43% | 1011.8 hPa | 0 mm | - | 846 W/m² | - |
| 1777824830 | 12.78° C | 44% | 1011.8 hPa | 0 mm | - | 235 W/m² | - |
| 1777824527 | 12.22° C | 44% | 1011.8 hPa | 0 mm | - | 226 W/m² | - |
| 1777824224 | 12.22° C | 43% | 1012.1 hPa | 0 mm | - | 726 W/m² | - |
| 1777823919 | 12.22° C | 43% | 1012.1 hPa | 0 mm | - | 235 W/m² | - |
| 1777823617 | 12.78° C | 39% | 1012.4 hPa | 0 mm | - | 202 W/m² | - |
| 1777823314 | 12.22° C | 40% | 1012.3 hPa | 0 mm | - | 798 W/m² | - |
| 1777823012 | 12.22° C | 43% | 1012.1 hPa | 0 mm | - | 812 W/m² | - |
| 1777822709 | 12.22° C | 44% | 1012.3 hPa | 0 mm | - | 865 W/m² | - |
| 1777822407 | 11.67° C | 45% | 1012.5 hPa | 0 mm | - | 200 W/m² | - |
| 1777822104 | 11.67° C | 43% | 1012.5 hPa | 0 mm | - | 789 W/m² | - |
| 1777821802 | 11.67° C | 45% | 1012.2 hPa | 0 mm | - | 706 W/m² | - |
| 1777821499 | 11.11° C | 43% | 1012.6 hPa | 0 mm | - | 619 W/m² | - |
| 1777821197 | 10.56° C | 45% | 1012.6 hPa | 0 mm | - | 900 W/m² | - |
| 1777820894 | 10.56° C | 46% | 1012.6 hPa | 0 mm | - | 270 W/m² | - |
* Rain latest hour (hover to see other rain measurements)
** Current wind speed in m/s (hover to see current wind gust speed)